Paducah, KY

9:22 AM CDT on March 30, 2017 (GMT -0500)
Barkley Regional

Weather History for KPAH - December, 2011

Change the Weather History Date:

Friday, December 16, 2011

  Actual Average Record
Temperature  
Mean Temperature 34 °F 37 °F  
Max Temperature 42 °F 46 °F 70 °F (1984)
Min Temperature 26 °F 28 °F -4 °F (1989)
Degree Days  
Heating Degree Days 31 28  
Month to date heating degree days 382 414  
Since 1 July heating degree days 1072 1191  
Cooling Degree Days 0 0  
Month to date cooling degree days 0 0  
Year to date cooling degree days 1703 1542  
Moisture  
Dew Point 28 °F    
Average Humidity 76    
Maximum Humidity 92    
Minimum Humidity 60    
Precipitation  
Precipitation T in 0.15 in 2.29 in (2001)
Month to date precipitation 5.81 2.47  
Year to date precipitation 73.37 46.96  
Snow  
Snow T in 0.00 in 1.50 in (1996)
Month to date snowfall T 0.9  
Since 1 July snowfall 0.3 1.0  
Snow Depth 0.00 in    
Sea Level Pressure  
Sea Level Pressure 30.35 in    
Wind  
Wind Speed 7 mph (North)    
Max Wind Speed 16 mph    
Max Gust Speed 20 mph    
Visibility 10 miles    
Events Rain    
T = Trace of Precipitation, MM = Missing Value Source: NWS Daily Summary

Daily Weather History Graph

Daily Weather History Graph

Search for Another Location

Airport or City:

Trip Planner

Search our weather history database for the weather conditions in past years. The results will help you decide how hot, cold, wet, or windy it might be!

Date:

Astronomy

Dec. 16, 2011 Rise Set
Actual Time 7:01 AM CST 4:39 PM CST
Civil Twilight 6:32 AM CST 5:08 PM CST
Nautical Twilight 6:00 AM CST 5:41 PM CST
Astronomical Twilight 5:28 AM CST 6:12 PM CST
Moon 11:04 PM CST (12/16) 10:54 AM CST (12/16)
Length of Visible Light 10h 35m
Length of Day
9h 37m
Waning Gibbous, 64% of the Moon is Illuminated
Dec 16
Waning Gibbous
Dec 17
Last Quarter
Dec 24
New
Jan 1
First Quarter
Jan 9
Full

Hourly Weather History & Observations

Time (CST) Temp. Windchill Dew Point Humidity Pressure Visibility Wind Dir Wind Speed Gust Speed Precip Events Conditions
12:53 AM 37.0 °F 29.3 °F 28.9 °F 73% 30.30 in 10.0 mi North 11.5 mph - N/A   Clear
1:53 AM 37.0 °F 28.5 °F 28.0 °F 70% 30.31 in 10.0 mi NNE 13.8 mph - N/A   Scattered Clouds
2:53 AM 37.0 °F 28.5 °F 27.0 °F 67% 30.32 in 10.0 mi NNE 13.8 mph 19.6 mph N/A   Overcast
3:53 AM 35.6 °F 28.0 °F 28.4 °F 75% 30.31 in 10.0 mi NNE 10.4 mph - N/A Rain Light Rain
4:53 AM 36.0 °F 32.1 °F 28.9 °F 76% 30.32 in 10.0 mi NE 4.6 mph - 0.00 in   Overcast
5:53 AM 36.0 °F 28.5 °F 28.0 °F 73% 30.33 in 10.0 mi NE 10.4 mph - N/A   Overcast
6:53 AM 37.0 °F 32.4 °F 28.0 °F 70% 30.38 in 10.0 mi North 5.8 mph - N/A   Overcast
7:53 AM 36.0 °F 28.5 °F 28.0 °F 73% 30.34 in 9.0 mi NNE 10.4 mph - 0.00 in   Overcast
8:53 AM 36.0 °F 29.6 °F 28.9 °F 76% 30.36 in 10.0 mi NNE 8.1 mph - 0.00 in   Overcast
9:53 AM 37.0 °F 30.4 °F 28.9 °F 73% 30.38 in 10.0 mi NNE 9.2 mph - 0.00 in   Overcast
10:53 AM 37.9 °F 31.5 °F 28.9 °F 70% 30.38 in 10.0 mi NNW 9.2 mph - N/A   Overcast
11:53 AM 39.0 °F 33.4 °F 30.0 °F 70% 30.35 in 10.0 mi North 8.1 mph - N/A   Overcast
12:53 PM 39.0 °F 35.7 °F 30.0 °F 70% 30.35 in 10.0 mi NNW 4.6 mph - N/A   Overcast
1:29 PM 39.2 °F 33.6 °F 28.4 °F 65% 30.34 in 10.0 mi North 8.1 mph - N/A   Overcast
1:53 PM 39.0 °F 32.8 °F 28.9 °F 67% 30.34 in 10.0 mi NNW 9.2 mph - N/A   Overcast
2:53 PM 41.0 °F 37.1 °F 28.9 °F 62% 30.35 in 10.0 mi North 5.8 mph - N/A   Scattered Clouds
3:53 PM 39.0 °F 34.8 °F 28.9 °F 67% 30.35 in 10.0 mi North 5.8 mph - N/A   Clear
4:53 PM 37.0 °F - 28.0 °F 70% 30.35 in 10.0 mi Calm Calm - N/A   Clear
5:53 PM 35.1 °F 31.0 °F 27.0 °F 72% 30.37 in 10.0 mi NW 4.6 mph - N/A   Clear
6:53 PM 32.0 °F 26.4 °F 27.0 °F 82% 30.38 in 10.0 mi North 5.8 mph - N/A   Clear
7:53 PM 34.0 °F 31.0 °F 27.0 °F 75% 30.39 in 10.0 mi North 3.5 mph - N/A   Clear
8:53 PM 30.9 °F - 27.0 °F 85% 30.39 in 10.0 mi Calm Calm - N/A   Clear
9:53 PM 28.9 °F - 26.1 °F 89% 30.41 in 10.0 mi Calm Calm - N/A   Clear
10:53 PM 27.0 °F 23.0 °F 25.0 °F 92% 30.40 in 8.0 mi NNW 3.5 mph - N/A   Clear
11:53 PM 28.9 °F 23.9 °F 25.0 °F 85% 30.37 in 10.0 mi NNE 4.6 mph - N/A   Clear